{"data":{"norad_id":64019,"epoch":"2026-09-20T22:23:53.449728Z","epoch_age_seconds":106087,"freshness":"FRESH","line1":"1 64019U 25101AB  26263.93325752  .00012125  00000+0  44917-3 0  9992","line2":"2 64019  43.0045 335.4577 0002619 281.6046  78.4512 15.27596142 76919","mean_motion":15.27596142,"eccentricity":0.0002619,"inclination_deg":43.0045,"raan_deg":335.4577,"arg_perigee_deg":281.6046,"mean_anomaly_deg":78.4512,"bstar":0.00044917,"rev_number":7691,"period_min":94.265752603609,"perigee_km":481.20382953049,"apogee_km":484.79769348997,"semimajor_km":6861.1377615102,"source":"CELESTRAK","updated_at":"2026-09-21T09:00:35.185018Z"}}